Year,Month,Day,Hour,Minute,Value (Times are PST for temperature in C)
2010,06,25,07,05,15.10
2010,06,25,07,06,15.10
2010,06,25,07,07,15.10
2010,06,25,07,08,15.10
2010,06,25,07,09,15.10
2010,06,25,07,10,15.10
2010,06,25,07,11,15.10
2010,06,25,07,12,15.10
2010,06,25,07,13,15.10
2010,06,25,07,14,15.10
2010,06,25,07,15,15.10
2010,06,25,07,16,15.10
2010,06,25,07,17,15.10
2010,06,25,07,18,15.20
2010,06,25,07,19,15.20
2010,06,25,07,20,15.20
2010,06,25,07,21,15.20
2010,06,25,07,22,15.20
2010,06,25,07,23,15.20
2010,06,25,07,24,15.20
2010,06,25,07,25,15.30
2010,06,25,07,26,15.30
2010,06,25,07,27,15.30
2010,06,25,07,28,15.30
2010,06,25,07,29,15.30
2010,06,25,07,30,15.30
2010,06,25,07,31,15.30
2010,06,25,07,32,15.30
2010,06,25,07,33,15.30
2010,06,25,07,34,15.30
2010,06,25,07,35,15.30
2010,06,25,07,36,15.30
2010,06,25,07,37,15.30
2010,06,25,07,38,15.30
2010,06,25,07,39,15.30
2010,06,25,07,40,15.30
2010,06,25,07,41,15.30
2010,06,25,07,42,15.30
2010,06,25,07,43,15.30
2010,06,25,07,44,15.30
2010,06,25,07,45,15.30
2010,06,25,07,46,15.30
2010,06,25,07,47,15.40
2010,06,25,07,48,15.40
2010,06,25,07,49,15.40
2010,06,25,07,50,15.30
2010,06,25,07,51,15.30
2010,06,25,07,52,15.40
2010,06,25,07,53,15.40
2010,06,25,07,54,15.40
2010,06,25,07,55,15.40
2010,06,25,07,56,15.40
2010,06,25,07,57,15.50
2010,06,25,07,58,15.50
2010,06,25,07,59,15.60
2010,06,25,08,00,15.60
2010,06,25,08,01,15.60
2010,06,25,08,02,15.60
2010,06,25,08,03,15.60
2010,06,25,08,04,15.60
2010,06,25,08,05,15.60
2010,06,25,08,06,15.70
2010,06,25,08,07,15.70
2010,06,25,08,08,15.70
2010,06,25,08,09,15.70
2010,06,25,08,10,15.70
2010,06,25,08,11,15.80
2010,06,25,08,12,15.80
2010,06,25,08,13,15.80
2010,06,25,08,14,15.90
2010,06,25,08,15,15.90
2010,06,25,08,16,16.00
2010,06,25,08,17,16.00
2010,06,25,08,18,16.00
2010,06,25,08,19,16.00
2010,06,25,08,20,16.00
2010,06,25,08,21,16.00
2010,06,25,08,22,15.90
2010,06,25,08,23,16.00
2010,06,25,08,24,16.00
2010,06,25,08,25,16.10
2010,06,25,08,26,16.10
2010,06,25,08,27,16.10
2010,06,25,08,28,16.20
2010,06,25,08,29,16.20
2010,06,25,08,30,16.20
2010,06,25,08,31,16.20
2010,06,25,08,32,16.30
2010,06,25,08,33,16.30
2010,06,25,08,34,16.40
2010,06,25,08,35,16.40
2010,06,25,08,36,16.40
2010,06,25,08,37,16.40
2010,06,25,08,38,16.50
2010,06,25,08,39,16.50
2010,06,25,08,40,16.50
2010,06,25,08,41,16.60
2010,06,25,08,42,16.60
2010,06,25,08,43,16.60
2010,06,25,08,44,16.60
2010,06,25,08,45,16.60
2010,06,25,08,46,16.50
2010,06,25,08,47,16.50
2010,06,25,08,48,16.50
2010,06,25,08,49,16.50
2010,06,25,08,50,16.60
2010,06,25,08,51,16.60
2010,06,25,08,52,16.60
2010,06,25,08,53,16.70
2010,06,25,08,54,16.70
2010,06,25,08,55,16.80
2010,06,25,08,56,16.80
2010,06,25,08,57,16.80
2010,06,25,08,58,16.80
2010,06,25,08,59,16.90
2010,06,25,09,00,16.90
2010,06,25,09,01,17.00
2010,06,25,09,02,17.10
2010,06,25,09,03,17.20
2010,06,25,09,04,17.20
2010,06,25,09,05,17.20
2010,06,25,09,06,17.20
2010,06,25,09,07,17.20
2010,06,25,09,08,17.20
2010,06,25,09,09,17.20
2010,06,25,09,10,17.20
2010,06,25,09,11,17.10
2010,06,25,09,12,16.90
2010,06,25,09,13,16.90
2010,06,25,09,14,16.90
2010,06,25,09,15,16.80
2010,06,25,09,16,16.80
2010,06,25,09,17,16.80
2010,06,25,09,18,16.80
2010,06,25,09,19,16.80
2010,06,25,09,20,16.80
2010,06,25,09,21,16.70
2010,06,25,09,22,16.70
2010,06,25,09,23,16.80
2010,06,25,09,24,16.80
2010,06,25,09,25,16.80
2010,06,25,09,26,16.70
2010,06,25,09,27,16.70
2010,06,25,09,28,16.60
2010,06,25,09,29,16.60
2010,06,25,09,30,16.60
2010,06,25,09,31,16.70
2010,06,25,09,32,16.70
2010,06,25,09,33,16.80
2010,06,25,09,34,16.80
2010,06,25,09,35,16.70
2010,06,25,09,36,16.70
2010,06,25,09,37,16.70
2010,06,25,09,38,16.70
2010,06,25,09,39,16.70
2010,06,25,09,40,16.70
2010,06,25,09,41,16.70
2010,06,25,09,42,16.70
2010,06,25,09,43,16.70
2010,06,25,09,44,16.70
2010,06,25,09,45,16.70
2010,06,25,09,46,16.70
2010,06,25,09,47,16.70
2010,06,25,09,48,16.60
2010,06,25,09,49,16.60
2010,06,25,09,50,16.70
2010,06,25,09,51,16.70
2010,06,25,09,52,16.70
2010,06,25,09,53,16.70
2010,06,25,09,54,16.80
2010,06,25,09,55,16.80
2010,06,25,09,56,16.80
2010,06,25,09,57,16.80
2010,06,25,09,58,16.90
2010,06,25,09,59,16.90
2010,06,25,10,00,16.90
2010,06,25,10,01,16.90
2010,06,25,10,02,16.90
2010,06,25,10,03,16.90
2010,06,25,10,04,16.90
2010,06,25,10,05,17.00
2010,06,25,10,06,17.00
2010,06,25,10,07,17.10
2010,06,25,10,08,17.10
2010,06,25,10,09,17.10
2010,06,25,10,10,17.10
2010,06,25,10,11,17.10
2010,06,25,10,12,17.00
2010,06,25,10,13,17.00
2010,06,25,10,14,16.90
2010,06,25,10,15,16.90
2010,06,25,10,16,16.90
2010,06,25,10,17,16.90
2010,06,25,10,18,16.90
2010,06,25,10,19,16.90
2010,06,25,10,20,16.90
2010,06,25,10,21,16.90
2010,06,25,10,22,16.80
2010,06,25,10,23,16.80
2010,06,25,10,24,16.80
2010,06,25,10,25,16.80
2010,06,25,10,26,16.80
2010,06,25,10,27,16.80
2010,06,25,10,28,16.80
2010,06,25,10,29,16.80
2010,06,25,10,30,16.80
2010,06,25,10,31,16.90
2010,06,25,10,32,16.90
2010,06,25,10,33,17.00
2010,06,25,10,34,17.00
2010,06,25,10,35,17.10
2010,06,25,10,36,17.10
2010,06,25,10,37,17.10
2010,06,25,10,38,17.10
2010,06,25,10,39,17.10
2010,06,25,10,40,17.20
2010,06,25,10,41,17.20
2010,06,25,10,42,17.20
2010,06,25,10,43,17.20
2010,06,25,10,44,17.30
2010,06,25,10,45,17.30
2010,06,25,10,46,17.20
2010,06,25,10,47,17.20
2010,06,25,10,48,17.20
2010,06,25,10,49,17.20
2010,06,25,10,50,17.20
2010,06,25,10,51,17.10
2010,06,25,10,52,17.10
2010,06,25,10,53,17.10
2010,06,25,10,54,17.20
2010,06,25,10,55,17.20
2010,06,25,10,56,17.20
2010,06,25,10,57,17.20
2010,06,25,10,58,17.20
2010,06,25,10,59,17.30
2010,06,25,11,00,17.30
2010,06,25,11,01,17.30
2010,06,25,11,02,17.30
2010,06,25,11,03,17.40
2010,06,25,11,04,17.40
2010,06,25,11,05,17.40
2010,06,25,11,06,17.40
2010,06,25,11,07,17.40
2010,06,25,11,08,17.40
2010,06,25,11,09,17.50
2010,06,25,11,10,17.50
2010,06,25,11,11,17.60
2010,06,25,11,12,17.70
2010,06,25,11,13,17.70
2010,06,25,11,14,17.80
2010,06,25,11,15,17.80
2010,06,25,11,16,17.80
2010,06,25,11,17,17.80
2010,06,25,11,18,17.90
2010,06,25,11,19,18.00
2010,06,25,11,20,18.10
2010,06,25,11,21,18.20
2010,06,25,11,22,18.20
2010,06,25,11,23,18.20
2010,06,25,11,24,18.20
2010,06,25,11,25,18.20
2010,06,25,11,26,18.30
2010,06,25,11,27,18.30
2010,06,25,11,28,18.30
2010,06,25,11,29,18.30
2010,06,25,11,30,18.20
2010,06,25,11,31,18.10
2010,06,25,11,32,18.10
2010,06,25,11,33,18.10
2010,06,25,11,34,18.10
2010,06,25,11,35,18.10
2010,06,25,11,36,18.00
2010,06,25,11,37,18.00
2010,06,25,11,38,18.10
2010,06,25,11,39,18.10
2010,06,25,11,40,18.10
2010,06,25,11,41,18.10
2010,06,25,11,42,18.10
2010,06,25,11,43,18.00
2010,06,25,11,44,18.00
2010,06,25,11,45,17.90
2010,06,25,11,46,17.90
2010,06,25,11,47,17.80
2010,06,25,11,48,17.80
2010,06,25,11,49,17.90
2010,06,25,11,50,17.80
2010,06,25,11,51,17.90
2010,06,25,11,52,18.00
2010,06,25,11,53,18.10
2010,06,25,11,54,18.10
2010,06,25,11,55,18.10
2010,06,25,11,56,18.20
2010,06,25,11,57,18.30
2010,06,25,11,58,18.30
2010,06,25,11,59,18.30
2010,06,25,12,00,18.20
2010,06,25,12,01,18.10
2010,06,25,12,02,18.00
2010,06,25,12,03,18.00
2010,06,25,12,04,18.00
2010,06,25,12,05,18.10
2010,06,25,12,06,18.20
2010,06,25,12,07,18.20
2010,06,25,12,08,18.30
2010,06,25,12,09,18.30
2010,06,25,12,10,18.40
2010,06,25,12,11,18.40
2010,06,25,12,12,18.40
2010,06,25,12,13,18.40
2010,06,25,12,14,18.40
2010,06,25,12,15,18.50
2010,06,25,12,16,18.50
2010,06,25,12,17,18.50
2010,06,25,12,18,18.60
2010,06,25,12,19,18.60
2010,06,25,12,20,18.60
2010,06,25,12,21,18.60
2010,06,25,12,22,18.60
2010,06,25,12,23,18.60
2010,06,25,12,24,18.60
2010,06,25,12,25,18.60
2010,06,25,12,26,18.60
2010,06,25,12,27,18.60
2010,06,25,12,28,18.60
2010,06,25,12,29,18.60
2010,06,25,12,30,18.60
2010,06,25,12,31,18.60
2010,06,25,12,32,18.60
2010,06,25,12,33,18.60
2010,06,25,12,34,18.60
2010,06,25,12,35,18.60
2010,06,25,12,36,18.60
2010,06,25,12,37,18.60
2010,06,25,12,38,18.60
2010,06,25,12,39,18.70
2010,06,25,12,40,18.70
2010,06,25,12,41,18.70
2010,06,25,12,42,18.70
2010,06,25,12,43,18.70
2010,06,25,12,44,18.70
2010,06,25,12,45,18.70
2010,06,25,12,46,18.80
2010,06,25,12,47,18.80
2010,06,25,12,48,18.80
2010,06,25,12,49,18.80
2010,06,25,12,50,18.90
2010,06,25,12,51,18.90
2010,06,25,12,52,18.90
2010,06,25,12,53,18.90
2010,06,25,12,54,18.80
2010,06,25,12,55,18.70
2010,06,25,12,56,18.70
2010,06,25,12,57,18.70
2010,06,25,12,58,18.80
2010,06,25,12,59,18.80
2010,06,25,13,00,18.80
2010,06,25,13,01,18.90
2010,06,25,13,02,18.90
2010,06,25,13,03,18.90
2010,06,25,13,04,18.90
2010,06,25,13,05,18.90
2010,06,25,13,06,18.90
2010,06,25,13,07,18.90
2010,06,25,13,08,19.00
2010,06,25,13,09,19.10
2010,06,25,13,10,19.10
2010,06,25,13,11,19.20
2010,06,25,13,12,19.30
2010,06,25,13,13,19.30
2010,06,25,13,14,19.30
2010,06,25,13,15,19.30
2010,06,25,13,16,19.30
2010,06,25,13,17,19.30
2010,06,25,13,18,19.30
2010,06,25,13,19,19.30
2010,06,25,13,20,19.30
2010,06,25,13,21,19.30
2010,06,25,13,22,19.30
2010,06,25,13,23,19.40
2010,06,25,13,24,19.40
2010,06,25,13,25,19.30
2010,06,25,13,26,19.30
2010,06,25,13,27,19.20
2010,06,25,13,28,19.20
2010,06,25,13,29,19.20
2010,06,25,13,30,19.30
2010,06,25,13,31,19.30
2010,06,25,13,32,19.30
2010,06,25,13,33,19.30
2010,06,25,13,34,19.30
2010,06,25,13,35,19.20
2010,06,25,13,36,19.20
2010,06,25,13,37,19.20
2010,06,25,13,38,19.20
2010,06,25,13,39,19.20
2010,06,25,13,40,19.30
2010,06,25,13,41,19.30
2010,06,25,13,42,19.40
2010,06,25,13,43,19.40
2010,06,25,13,44,19.40
2010,06,25,13,45,19.40
2010,06,25,13,46,19.40
2010,06,25,13,47,19.40
2010,06,25,13,48,19.30
2010,06,25,13,49,19.30
2010,06,25,13,50,19.30
2010,06,25,13,51,19.30
2010,06,25,13,52,19.40
2010,06,25,13,53,19.40
2010,06,25,13,54,19.40
2010,06,25,13,55,19.40
2010,06,25,13,56,19.40
2010,06,25,13,57,19.50
2010,06,25,13,58,19.50
2010,06,25,13,59,19.50
2010,06,25,14,00,19.60
2010,06,25,14,01,19.70
2010,06,25,14,02,19.70
2010,06,25,14,03,19.70
2010,06,25,14,04,19.60
2010,06,25,14,05,19.60
2010,06,25,14,06,19.60
2010,06,25,14,07,19.60
2010,06,25,14,08,19.60
2010,06,25,14,09,19.70
2010,06,25,14,10,19.70
2010,06,25,14,11,19.70
2010,06,25,14,12,19.70
2010,06,25,14,13,19.70
2010,06,25,14,14,19.70
2010,06,25,14,15,19.80
2010,06,25,14,16,19.80
2010,06,25,14,17,19.80
2010,06,25,14,18,19.70
2010,06,25,14,19,19.70
2010,06,25,14,20,19.60
2010,06,25,14,21,19.60
2010,06,25,14,22,19.50
2010,06,25,14,23,19.50
2010,06,25,14,24,19.60
2010,06,25,14,25,19.60
2010,06,25,14,26,19.70
2010,06,25,14,27,19.80
2010,06,25,14,28,19.90
2010,06,25,14,29,20.00
2010,06,25,14,30,20.20
2010,06,25,14,31,20.30
2010,06,25,14,32,20.30
2010,06,25,14,33,20.30
2010,06,25,14,34,20.30
2010,06,25,14,35,20.20
2010,06,25,14,36,20.20
2010,06,25,14,37,20.30
2010,06,25,14,38,20.30
2010,06,25,14,39,20.30
2010,06,25,14,40,20.30
2010,06,25,14,41,20.30
2010,06,25,14,42,20.30
2010,06,25,14,43,20.40
2010,06,25,14,44,20.40
2010,06,25,14,45,20.50
2010,06,25,14,46,20.50
2010,06,25,14,47,20.50
2010,06,25,14,48,20.60
2010,06,25,14,49,20.60
2010,06,25,14,50,20.60
2010,06,25,14,51,20.60
2010,06,25,14,52,20.60
2010,06,25,14,53,20.60
2010,06,25,14,54,20.60
2010,06,25,14,55,20.60
2010,06,25,14,56,20.60
2010,06,25,14,57,20.60
2010,06,25,14,58,20.60
2010,06,25,14,59,20.60
2010,06,25,15,00,20.60
2010,06,25,15,01,20.50
2010,06,25,15,02,20.40
2010,06,25,15,03,20.40
2010,06,25,15,04,20.40
2010,06,25,15,05,20.40
2010,06,25,15,06,20.40
2010,06,25,15,07,20.40
2010,06,25,15,08,20.30
2010,06,25,15,09,20.30
2010,06,25,15,10,20.30
2010,06,25,15,11,20.30
2010,06,25,15,12,20.40
2010,06,25,15,13,20.40
2010,06,25,15,14,20.50
2010,06,25,15,15,20.60
2010,06,25,15,16,20.60
2010,06,25,15,17,20.60
2010,06,25,15,18,20.60
2010,06,25,15,19,20.50
2010,06,25,15,20,20.50
2010,06,25,15,21,20.50
2010,06,25,15,22,20.50
2010,06,25,15,23,20.50
2010,06,25,15,24,20.50
2010,06,25,15,25,20.50
2010,06,25,15,26,20.50
2010,06,25,15,27,20.50
2010,06,25,15,28,20.50
2010,06,25,15,29,20.60
2010,06,25,15,30,20.70
2010,06,25,15,31,20.60
2010,06,25,15,32,20.60
2010,06,25,15,33,20.70
2010,06,25,15,34,20.70
2010,06,25,15,35,20.80
2010,06,25,15,36,20.80
2010,06,25,15,37,20.80
2010,06,25,15,38,20.90
2010,06,25,15,39,20.90
2010,06,25,15,40,20.80
2010,06,25,15,41,20.80
2010,06,25,15,42,20.90
2010,06,25,15,43,20.90
2010,06,25,15,44,21.00
2010,06,25,15,45,21.00
2010,06,25,15,46,21.10
2010,06,25,15,47,21.20
2010,06,25,15,48,21.30
2010,06,25,15,49,21.30
2010,06,25,15,50,21.40
2010,06,25,15,51,21.50
2010,06,25,15,52,21.50
2010,06,25,15,53,21.60
2010,06,25,15,54,21.50
2010,06,25,15,55,21.40
2010,06,25,15,56,21.40
2010,06,25,15,57,21.40
2010,06,25,15,58,21.40
2010,06,25,15,59,21.30
2010,06,25,16,00,21.20
2010,06,25,16,01,21.20
2010,06,25,16,02,21.30
2010,06,25,16,03,21.40
2010,06,25,16,04,21.40
2010,06,25,16,05,21.30
2010,06,25,16,06,21.20
2010,06,25,16,07,21.00
2010,06,25,16,08,20.90
2010,06,25,16,09,20.80
2010,06,25,16,10,20.80
2010,06,25,16,11,20.80
2010,06,25,16,12,20.80
2010,06,25,16,13,20.70
2010,06,25,16,14,20.70
2010,06,25,16,15,20.70
2010,06,25,16,16,20.50
2010,06,25,16,17,20.60
2010,06,25,16,18,20.60
2010,06,25,16,19,20.60
2010,06,25,16,20,20.70
2010,06,25,16,21,20.70
2010,06,25,16,22,20.70
2010,06,25,16,23,20.80
2010,06,25,16,24,20.70
2010,06,25,16,25,20.70
2010,06,25,16,26,20.70
2010,06,25,16,27,20.70
2010,06,25,16,28,20.70
2010,06,25,16,29,20.80
2010,06,25,16,30,20.80
2010,06,25,16,31,20.70
2010,06,25,16,32,20.70
2010,06,25,16,33,20.70
2010,06,25,16,34,20.80
2010,06,25,16,35,20.80
2010,06,25,16,36,20.80
2010,06,25,16,37,20.80
2010,06,25,16,38,20.70
2010,06,25,16,39,20.70
2010,06,25,16,40,20.60
2010,06,25,16,41,20.70
2010,06,25,16,42,20.80
2010,06,25,16,43,20.90
2010,06,25,16,44,21.00
2010,06,25,16,45,21.10
2010,06,25,16,46,21.00
2010,06,25,16,47,20.90
2010,06,25,16,48,20.80
2010,06,25,16,49,20.80
2010,06,25,16,50,20.70
2010,06,25,16,51,20.70
2010,06,25,16,52,20.70
2010,06,25,16,53,20.70
2010,06,25,16,54,20.70
2010,06,25,16,55,20.70
2010,06,25,16,56,20.80
2010,06,25,16,57,20.80
2010,06,25,16,58,20.70
2010,06,25,16,59,20.70
2010,06,25,17,00,20.70
2010,06,25,17,01,20.60
2010,06,25,17,02,20.70
2010,06,25,17,03,20.80
2010,06,25,17,04,20.90
2010,06,25,17,05,20.80
2010,06,25,17,06,20.80
2010,06,25,17,07,20.80
2010,06,25,17,08,20.80
2010,06,25,17,09,20.70
2010,06,25,17,10,20.70
2010,06,25,17,11,20.70
2010,06,25,17,12,20.60
2010,06,25,17,13,20.70
2010,06,25,17,14,20.70
2010,06,25,17,15,20.80
2010,06,25,17,16,20.90
2010,06,25,17,17,21.00
2010,06,25,17,18,21.10
2010,06,25,17,19,21.10
2010,06,25,17,20,21.00
2010,06,25,17,21,21.00
2010,06,25,17,22,21.00
2010,06,25,17,23,21.10
2010,06,25,17,24,21.00
2010,06,25,17,25,21.00
2010,06,25,17,26,21.00
2010,06,25,17,27,21.00
2010,06,25,17,28,21.00
2010,06,25,17,29,20.90
2010,06,25,17,30,20.90
2010,06,25,17,31,20.90
2010,06,25,17,32,20.90
2010,06,25,17,33,20.90
2010,06,25,17,34,20.90
2010,06,25,17,35,21.00
2010,06,25,17,36,21.00
2010,06,25,17,37,21.10
2010,06,25,17,38,21.10
2010,06,25,17,39,21.10
2010,06,25,17,40,21.10
2010,06,25,17,41,21.10
2010,06,25,17,42,21.20
2010,06,25,17,43,21.20
2010,06,25,17,44,21.20
2010,06,25,17,45,21.30
2010,06,25,17,46,21.30
2010,06,25,17,47,21.30
2010,06,25,17,48,21.30
2010,06,25,17,49,21.20
2010,06,25,17,50,21.30
2010,06,25,17,51,21.40
2010,06,25,17,52,21.40
2010,06,25,17,53,21.40
2010,06,25,17,54,21.40
2010,06,25,17,55,21.40
2010,06,25,17,56,21.50
2010,06,25,17,57,21.60
2010,06,25,17,58,21.70
2010,06,25,17,59,21.80
2010,06,25,18,00,21.80
2010,06,25,18,01,21.80
2010,06,25,18,02,21.80
2010,06,25,18,03,21.80
2010,06,25,18,04,21.70
2010,06,25,18,05,21.70
2010,06,25,18,06,21.70
2010,06,25,18,07,21.60
2010,06,25,18,08,21.70
2010,06,25,18,09,21.70
2010,06,25,18,10,21.80
2010,06,25,18,11,21.80
2010,06,25,18,12,21.80
2010,06,25,18,13,21.80
2010,06,25,18,14,21.80
2010,06,25,18,15,21.90
2010,06,25,18,16,21.90
2010,06,25,18,17,21.90
2010,06,25,18,18,21.90
2010,06,25,18,19,21.90
2010,06,25,18,20,21.90
2010,06,25,18,21,21.90
2010,06,25,18,22,21.90
2010,06,25,18,23,21.90
2010,06,25,18,24,21.90
2010,06,25,18,25,21.90
2010,06,25,18,26,21.80
2010,06,25,18,27,21.80
2010,06,25,18,28,21.80
2010,06,25,18,29,21.70
2010,06,25,18,30,21.70
2010,06,25,18,31,21.70
2010,06,25,18,32,21.70
2010,06,25,18,33,21.70
2010,06,25,18,34,21.60
2010,06,25,18,35,21.50
2010,06,25,18,36,21.40
2010,06,25,18,37,21.20
2010,06,25,18,38,21.10
2010,06,25,18,39,21.00
2010,06,25,18,40,20.90
2010,06,25,18,41,20.90
2010,06,25,18,42,20.90
2010,06,25,18,43,20.80
2010,06,25,18,44,20.80
2010,06,25,18,45,20.70
2010,06,25,18,46,20.70
2010,06,25,18,47,20.70
2010,06,25,18,48,20.70
2010,06,25,18,49,20.60
2010,06,25,18,50,20.60
2010,06,25,18,51,20.60
2010,06,25,18,52,20.70
2010,06,25,18,53,20.70
2010,06,25,18,54,20.80
2010,06,25,18,55,20.80
2010,06,25,18,56,20.70
2010,06,25,18,57,20.60
2010,06,25,18,58,20.50
2010,06,25,18,59,20.40
2010,06,25,19,00,20.30
2010,06,25,19,01,20.30
2010,06,25,19,02,20.30
2010,06,25,19,03,20.30
2010,06,25,19,04,20.30
2010,06,25,19,05,20.20
2010,06,25,19,06,20.10
2010,06,25,19,07,20.10
2010,06,25,19,08,20.10
2010,06,25,19,09,20.10
2010,06,25,19,10,20.10
2010,06,25,19,11,20.10
2010,06,25,19,12,20.00
2010,06,25,19,13,20.00
2010,06,25,19,14,19.90
2010,06,25,19,15,19.80
2010,06,25,19,16,19.80
2010,06,25,19,17,19.90
2010,06,25,19,18,19.90
2010,06,25,19,19,19.80
2010,06,25,19,20,19.80
2010,06,25,19,21,19.90
2010,06,25,19,22,19.90
2010,06,25,19,23,19.90
2010,06,25,19,24,19.80
2010,06,25,19,25,19.80
2010,06,25,19,26,19.80
2010,06,25,19,27,19.80
2010,06,25,19,28,19.80
2010,06,25,19,29,19.80
2010,06,25,19,30,19.80
2010,06,25,19,31,19.80
2010,06,25,19,32,19.80
2010,06,25,19,33,19.80
2010,06,25,19,34,19.80
2010,06,25,19,35,19.80
2010,06,25,19,36,19.80
2010,06,25,19,37,19.80
2010,06,25,19,38,19.80
2010,06,25,19,39,19.80
